STARLINK-30326, 57639

Orbit data source: Space-Track

STARLINK-30326, 57639 is a payload satellite owned by SpaceX/Seattle (US) in LEO that was launched on Thu, 17 Aug 2023 UTC via an FALCON 9 launch vehicle from the Air Force Eastern Test Range (AFETR). Payload-class satellites include a variety of spacecraft equipped with specific instruments for various scientific and technological missions. These include communications satellites like Starlink; space stations such as the ISS; scientific satellites like the Hubble; Earth observation satellites from companies like Planet Labs, Umbra, and HawkEye 360; GPS; miniature CubeSats for education and research; and military/defense satellites.

Loading next visibility...
Identifier
57639, 2023-122H
Orbit
LEO
Country
Flag of USUS
Related business
Manufacturer
SpaceX/Seattle
Mission
Operational Commercial Communications
Bus & Motor
STARLINK V2M, Unknown motor
Mass
730 kg wet, ~700 kg dry
Launch date (UTC)
2023-08-17 (2 years ago)
Launch vehicle
FALCON 9
Launch site
Air Force Eastern Test Range (AFETR)
Object type
Payload
Rocket body
Debris
Shape & HBR
Box + 2 Pan, 14.5 m
Radar Cross Section
33.884 m², Large (>1 m²)

Expand to show TLE details & history
Last TLE update: 15 hours ago

TLE from 15 hours ago
0 STARLINK-30326
1 57639U 23122H   25243.15377974 -.00000248  00000-0 -32876-5 0  9996
2 57639  43.0030  49.6575 0001255 265.7751  94.2948 15.02536815113528
Epoch: 2025-08-31T03:41Z
TLE epoch observation values (Epoch: 2025-08-31T03:41:26.569Z)
Latitude
-0.00002°
Longitude
14.71897°
Altitude
558.921 km
Speed
7.584 km/s
True Right ascension
03h 18m 37s
True Declination
0° 00' 00"
Sunlit
Object was in daylight at epoch
Visualization orbit readout
Latitude
Unknown
Longitude
Unknown
Altitude
Unknown
Speed
Unknown
Apparent Right ascension
Unknown
Apparent Declination
Unknown
Sunlit
N/A
Visualization observer readout
Local Sidereal Time
10:22:41
Azimuth
Unknown
Elevation
Unknown
Doppler factor
Unknown
Orbital elements
Apogee altitude
561.871 km
Perigee altitude
560.13 km
Semi-major axis
6,939.137 km
Eccentricity
0.00013
Inclination
43.003°
RAAN
49.6575°
Arg. of periapsis
265.7751°
True anomaly
94.30914°
Mean anomaly
94.2948°
Eccentric anomaly
94.30197°
Mean motion
3.75478 °/min
Orbital period
95.88 mins
BSTAR
-0.0000032876
Loading maneuver chart data...
Computing Atmospheric mass density...
Loading historical data...
Loading historical data...
Loading historical data...
Loading historical data...
Loading historical data...
Loading historical data...
Loading historical data...

Documentation

Showing up to 5 results
|